DateTimeUTC,F1_A11,F1_S11,BsB_S11,BsG_S11,BsR_S11,BbsB_S11,BbsG_S11,BbsR_S11,BaB_A11,BaG_A11,BaR_A11,Tu_S11,T_S11,Uu_S11,U_S11,P_S11,T1_A11
2021-01-25T18:00:00Z,00000200,21000000,,,,,,,-000.17,-000.12,-000.24,15.6,23.0,,00.0,0644.0,30.9
2021-01-25T18:01:00Z,00000200,21000000,,,,,,,-000.22,-000.58,-000.11,15.6,23.0,,00.0,0644.0,30.9
2021-01-25T18:02:00Z,00000200,21000000,,,,,,,-000.23,-000.03,-000.03,15.6,23.0,,00.0,0644.0,30.9
2021-01-25T18:03:00Z,00000200,61000000,,,,,,,0000.09,0000.70,0000.43,15.6,23.0,,00.0,0644.0,30.9
2021-01-25T18:04:00Z,00000200,41000000,0000.74,0000.19,-000.55,0000.03,0000.11,-000.41,0000.66,-000.04,0000.15,15.9,22.8,,00.0,0644.8,30.9
2021-01-25T18:05:00Z,00000200,01000000,0000.07,0000.28,-000.00,0000.25,0000.08,-000.01,0000.24,0000.65,0000.21,16.0,22.8,,00.0,0644.9,30.9
2021-01-25T18:06:00Z,00000200,01000000,-000.14,0000.15,-000.14,-000.32,0000.25,0000.15,0000.13,0000.30,-000.03,16.1,22.8,,00.0,0644.9,30.9
2021-01-25T18:07:00Z,00000200,01000000,0000.09,0000.60,0000.08,-000.02,0000.20,-000.25,0000.45,-000.05,0000.44,16.1,22.8,,00.0,0644.9,30.9
2021-01-25T18:08:00Z,00000200,01000000,0000.58,0000.18,-000.03,0000.39,0000.15,-000.12,0000.21,0000.24,-000.02,16.1,22.8,,00.0,0644.9,30.9
2021-01-25T18:09:00Z,00000200,01000000,0000.01,0000.31,-000.14,0000.33,0000.08,-000.36,-000.13,0000.06,-000.18,16.2,22.8,,00.0,0644.9,30.9
2021-01-25T18:10:00Z,00000200,01000000,0000.75,0000.12,0000.06,-000.08,0000.06,-000.03,-000.06,0000.03,0000.24,16.2,22.8,,00.0,0644.8,30.9
2021-01-25T18:11:00Z,00000200,01000000,0000.84,0000.04,0000.09,0000.43,0000.15,0000.07,-000.07,0000.09,0000.02,16.1,22.8,,00.0,0644.8,30.9
2021-01-25T18:12:00Z,00000200,01000000,0000.23,-000.04,-000.26,0000.17,0000.13,-000.01,0000.33,-000.20,-000.24,16.0,22.7,,00.0,0644.8,30.9
2021-01-25T18:13:00Z,00000200,01000000,0000.48,0000.41,0000.03,0000.24,0000.07,-000.26,-000.40,-000.32,-000.24,16.0,22.7,,00.0,0644.8,30.9
2021-01-25T18:14:00Z,00000200,01000000,0000.35,0000.33,0000.07,0000.05,0000.18,0000.17,-000.16,-000.16,0000.11,15.9,22.7,,00.0,0644.8,30.9
2021-01-25T18:15:00Z,00000200,01000000,0000.50,0000.43,-000.16,-000.32,0000.03,-000.05,0000.14,-000.06,0000.05,15.9,22.6,,00.0,0644.8,30.9
2021-01-25T18:16:00Z,00000200,01000000,0000.35,0000.20,-000.26,0000.29,0000.10,-000.10,-000.34,0000.46,0000.15,15.9,22.6,,00.0,0644.8,30.9
2021-01-25T18:17:00Z,00000200,01000000,0000.18,0000.29,0000.07,0000.56,0000.09,0000.17,0000.36,-000.28,-000.42,16.0,22.7,,00.0,0644.8,30.9
2021-01-25T18:18:00Z,00000200,01000000,0000.32,-000.02,-000.02,0000.30,0000.05,-000.08,0000.27,0000.30,0000.81,16.0,22.7,,00.0,0644.8,30.9
2021-01-25T18:19:00Z,00000200,01000000,0000.07,0000.47,0000.06,-000.05,-000.13,0000.05,0000.31,0000.45,-000.14,16.0,22.7,,00.0,0644.8,30.9
2021-01-25T18:20:00Z,00000200,01000000,-000.36,0000.46,0000.21,0000.52,0000.12,-000.04,0000.29,0000.17,0000.28,16.1,22.7,,00.0,0644.7,30.9
2021-01-25T18:21:00Z,00000200,01000000,0000.67,0000.36,0000.11,0000.53,0000.04,-000.14,0000.23,0000.34,0000.48,16.1,22.7,,00.0,0644.7,30.9
2021-01-25T18:22:00Z,00000200,01000000,0001.28,0000.61,0000.16,0000.47,0000.05,0000.01,0000.14,-000.05,-000.31,16.2,22.7,,00.0,0644.8,30.9
2021-01-25T18:23:00Z,00000200,01000000,0000.36,0000.60,-000.04,-000.27,0000.21,-000.03,-000.12,0000.06,-000.13,16.2,22.7,,00.0,0644.8,30.9
2021-01-25T18:24:00Z,00000200,01000000,0000.73,0000.24,0000.12,0000.46,0000.22,-000.23,0000.03,-000.13,0000.20,16.2,22.7,,00.0,0644.7,30.9
2021-01-25T18:25:00Z,00000200,01000000,0000.58,0000.89,0000.04,-000.28,-000.09,-000.06,0000.48,0000.38,0000.23,16.1,22.7,,00.0,0644.7,30.9
2021-01-25T18:26:00Z,00000200,01000000,0001.22,0000.99,0000.26,0000.78,0000.33,0000.22,0000.89,0000.62,0000.47,16.1,22.7,,00.0,0644.6,30.9
2021-01-25T18:27:00Z,00000200,01000000,0000.93,0001.03,0000.79,0000.19,0000.22,0000.04,0000.31,0000.72,0000.56,16.0,22.7,,00.0,0644.6,30.9
2021-01-25T18:28:00Z,00000200,01000000,0001.07,0001.04,0000.52,0000.80,-000.16,-000.11,0000.63,0000.21,0000.04,15.9,22.6,,00.0,0644.6,30.9
2021-01-25T18:29:00Z,00000200,01000000,0001.06,0000.63,0000.26,-000.64,0000.36,-000.15,0000.23,0000.11,0000.66,15.9,22.6,,00.0,0644.6,30.9
2021-01-25T18:30:00Z,00000200,01000000,0001.42,0001.45,0000.42,0000.55,0000.20,0000.10,0000.47,0000.89,0000.14,15.9,22.5,,00.0,0644.6,30.9
2021-01-25T18:31:00Z,00000200,01000000,0001.94,0001.17,0000.72,0000.10,0000.43,-000.08,0001.12,0000.86,0000.75,15.9,22.6,,00.0,0644.6,30.9
2021-01-25T18:32:00Z,00000200,01000000,0000.80,0001.21,0000.73,0000.46,0000.31,0000.04,0001.14,0000.55,0000.38,15.9,22.6,,00.0,0644.6,30.9
2021-01-25T18:33:00Z,00000200,01000000,0001.75,0001.40,0000.79,0000.24,0000.26,0000.28,0000.59,0001.05,0000.63,15.9,22.6,,00.0,0644.5,30.9
2021-01-25T18:34:00Z,00000200,01000000,0001.06,0001.13,0000.50,0000.08,0000.09,0000.36,0000.98,0000.80,0000.81,16.0,22.6,,00.0,0644.6,30.9
2021-01-25T18:35:00Z,00000200,01000000,0000.71,0000.77,0000.30,0000.28,0000.10,-000.18,0000.25,0000.36,-000.01,16.0,22.6,,00.0,0644.6,30.9
2021-01-25T18:36:00Z,00000200,01000000,0000.16,0000.27,0000.07,0000.38,0000.46,0000.15,-000.19,-000.28,0000.15,16.1,22.6,,00.0,0644.6,30.9
2021-01-25T18:37:00Z,00000200,01000000,0000.06,0000.60,0000.10,-000.01,0000.26,-000.20,0000.23,0000.16,-000.27,16.1,22.7,,00.0,0644.6,30.9
2021-01-25T18:38:00Z,00000200,01000000,0000.09,0000.59,0000.13,-000.13,0000.27,-000.17,-000.59,-000.10,0000.31,16.1,22.7,,00.0,0644.7,30.9
2021-01-25T18:39:00Z,00000200,01000000,0001.09,0000.76,0000.25,0000.02,0000.20,-000.07,0000.07,-000.55,-000.46,16.2,22.7,,00.0,0644.7,30.9
2021-01-25T18:40:00Z,00000200,01000000,0000.76,0000.68,0000.60,0000.28,0000.19,-000.04,0000.17,0000.46,0000.28,16.2,22.7,,00.0,0644.6,30.9
2021-01-25T18:41:00Z,00000200,01000000,0000.81,0000.63,0000.20,0000.59,0000.06,0000.28,0000.36,0000.06,0000.38,16.1,22.7,,00.0,0644.6,30.9
2021-01-25T18:42:00Z,00000200,01000000,0000.79,0000.44,0000.13,0000.11,-000.06,-000.09,-000.01,0000.24,0000.02,16.0,22.7,,00.0,0644.6,30.9
2021-01-25T18:43:00Z,00000200,01000000,0000.84,0000.92,0000.37,0000.44,0000.24,-000.15,0000.50,0000.08,-000.24,16.0,22.6,,00.0,0644.6,30.9
2021-01-25T18:44:00Z,00000200,01000000,0000.73,0000.41,0000.17,-000.08,-000.11,0000.04,-000.09,0000.41,0000.47,15.9,22.6,,00.0,0644.5,30.9
2021-01-25T18:45:00Z,00000200,01000000,0001.30,0000.93,0000.52,0000.30,0000.40,0000.17,0001.23,0000.66,0000.61,15.9,22.5,,00.0,0644.5,30.9
2021-01-25T18:46:00Z,00000200,01000000,0002.68,0001.93,0001.15,0000.08,0000.36,0000.14,0001.49,0001.52,0001.06,15.9,22.6,,00.0,0644.5,30.9
2021-01-25T18:47:00Z,00000200,01000000,0002.47,0001.94,0001.21,0000.26,0000.32,0000.07,0000.94,0000.97,0000.64,15.9,22.6,,00.0,0644.4,30.9
2021-01-25T18:48:00Z,00000200,01000000,0002.11,0001.92,0001.18,0000.42,0000.42,0000.24,0001.86,0001.10,0001.24,15.9,22.6,,00.0,0644.4,30.9
2021-01-25T18:49:00Z,00000200,01000000,0002.44,0002.09,0000.86,0000.56,0000.26,0000.33,0001.27,0001.87,0001.11,16.0,22.6,,00.0,0644.4,30.9
2021-01-25T18:50:00Z,00000200,01000000,0001.94,0001.23,0000.80,0000.22,0000.09,0000.38,0000.74,0000.16,0000.03,16.0,22.6,,00.0,0644.5,30.9
2021-01-25T18:51:00Z,00000200,01000000,0001.24,0001.22,0000.64,-000.16,-000.16,-000.24,0000.79,0001.17,0000.41,16.0,22.6,,00.0,0644.5,30.9
2021-01-25T18:52:00Z,00000200,01000000,0002.23,0001.67,0000.77,0000.29,0000.28,-000.16,0000.59,0000.53,0001.26,16.1,22.6,,00.0,0644.5,30.9
2021-01-25T18:53:00Z,00000200,01000000,0002.55,0001.62,0001.12,0000.12,0000.39,0000.21,0001.28,0001.49,0000.63,16.1,22.6,,00.0,0644.5,30.9
2021-01-25T18:54:00Z,00000200,01000000,0003.20,0002.03,0001.31,0000.27,0000.10,0000.17,0001.67,0001.07,0001.14,16.2,22.7,,00.0,0644.5,30.9
2021-01-25T18:55:00Z,00000200,01000000,0002.19,0001.71,0000.95,0000.42,0000.35,0000.38,0001.39,0000.84,0000.70,16.2,22.7,,00.0,0644.5,30.9
2021-01-25T18:56:00Z,00000200,01000000,0002.27,0001.96,0000.97,0000.13,0000.22,-000.01,0000.99,0001.07,0000.58,16.1,22.7,,00.0,0644.4,30.9
2021-01-25T18:57:00Z,00000200,41000000,,,,,,,0000.56,0001.06,0000.37,16.1,22.7,,00.0,0644.4,30.9
2021-01-25T18:58:00Z,00000200,61000000,,,,,,,-000.53,-001.04,-000.08,15.6,22.8,,00.0,0643.5,30.9
2021-01-25T18:59:00Z,00000200,21000000,,,,,,,-000.27,-000.27,-000.26,15.5,22.9,,00.0,0643.5,30.9
